Regional Weather Roundup
Issued by NWS Charleston, WV

Home | Current Version | Previous Version | Text Only | Print | Product List | Glossary On
Versions: 1 2 3 4 5 6 7 8 9 10 11 12 13 14 15 16 17 18 19 20 21 22 23 24 25 26 27
000
ASUS41 KRLX 170410
RWRRLX
West Virginia Regional Weather Roundup
National Weather Service Charleston WV
1200 AM EDT THU APR 17 2014

Note: "fair" indicates few or no clouds below 12,000 feet with no
significant weather and/or obstructions to visibility.

WVZ003-170500-
Northern Panhandle of West Virginia

CITY           SKY/WX    TMP DP  RH WIND       PRES   REMARKS
WHEELING       PTCLDY    36  16  44 E9        30.36F
$$

WVZ009-170500-
Northwest West Virginia

CITY           SKY/WX    TMP DP  RH WIND       PRES   REMARKS
PARKERSBURG    PTCLDY    41  17  38 E5        30.36S
$$

WVZ006-170500-
Western West Virginia

CITY           SKY/WX    TMP DP  RH WIND       PRES   REMARKS
HUNTINGTON     PTCLDY    42  20  41 E6        30.28S
$$

WVZ015-170500-
West Central West Virginia

CITY           SKY/WX    TMP DP  RH WIND       PRES   REMARKS
CHARLESTON     PTCLDY    42  23  46 E6        30.29S
$$

WVZ031-170500-
North Central West Virginia

CITY           SKY/WX    TMP DP  RH WIND       PRES   REMARKS
CLARKSBURG     PTCLDY    41  17  38 E7        30.36R
MORGANTOWN     PTCLDY    42  12  29 SE8       30.38R
$$

WVZ035-042-045-170500-
South Central West Virginia

CITY           SKY/WX    TMP DP  RH WIND       PRES   REMARKS
BECKLEY        CLEAR     40  19  43 SE13G24   30.33R
BLUEFIELD      CLEAR     41  18  39 SE12G20   30.34R
LEWISBURG      CLEAR     39  17  40 SE5       30.38R
$$

WVZ047-170500-
Northern Mountains of West Virginia

CITY           SKY/WX    TMP DP  RH WIND       PRES   REMARKS
ELKINS         PTCLDY    39  17  41 SE8       30.36S
$$

WVZ052-170500-
Eastern Panhandle of West Virginia

CITY           SKY/WX    TMP DP  RH WIND       PRES   REMARKS
MARTINSBURG    CLEAR     38  18  44 CALM      30.52R
PETERSBURG     PTCLDY    37  32  81 CALM      30.49R
$$



USA.gov is the U.S. government's official web portal to all federal, state and local government web resources and services.